IRNSS-1F (41384 NORAD) Tracking and Keplerian Element Data

This shows tracking and keplerian element data for the satellite.

Feedback or suggestion? Click here.




ElementValue
Catalog41384
NameIRNSS-1F
Epoch Orbit989
Epoch Day317.45754818
Epoch Year2018
RAAN249.5171
Inclination3.1226
Eccentricity0.0018257
Argument of Perigee185.9079
Mean Anonmoly174.2832
Mean Motion1.002721
Decay Rate1.57E-06
L11 41384U 16015A 18317.45754818 .00000157 00000-0 00000-0 0 9998
L22 41384 3.1226 249.5171 0018257 185.9079 174.2832 1.00272100 9893

Live tracking and technical data element details for IRNSS-1F (NORAD 41384). IRNSS-1F can be tracked NOW for your location showing map with azimuth and elevation plus other details from your city location.

Track the satellite on the map from your city or location and see movement details for azimuth, elevation, latitude, longitude, range, height, and movement on the map or in text.







IsCatalogInMostPopularTable: catalog: 41384, numindb: 79
Update: records affected: 1



GetName: 41384 IRNSS-1F

Hit Count: updated at: Fri, 16 Nov 2018 05:50:48 GMT